G7NPW-1 Weather Reports


time (UTC)temp
C
wind
direction
speed
KPH
gust
KPH
rain 1hr
cm
rain 24hr
cm
rain mn
cm
humidity
%
barometer
mb
20260507065008 6 80 16.1 16.1 0.00 0.00 0.00 86 1014.9
20260507063504 6 80 16.1 16.1 0.00 0.00 0.00 86 1014.9
20260507062503 6 80 16.1 16.1 0.00 0.00 0.00 86 1014.9
20260507061504 6 80 16.1 16.1 0.00 0.00 0.00 86 1014.9
20260507061008 6 80 16.1 16.1 0.00 0.00 0.00 86 1014.9
20260507060504 6 80 16.1 16.1 0.00 0.00 0.00 86 1014.9
20260507060006 6 80 16.1 16.1 0.00 0.00 0.00 86 1014.9
20260506210004 6 80 16.1 16.1 0.00 0.00 0.00 86 1014.9
20260506204007 7 80 12.9 12.9 0.00 0.00 0.00 81 1014.9
20260506203504 7 80 12.9 12.9 0.00 0.00 0.00 81 1014.9
20260506201504 7 80 12.9 12.9 0.00 0.00 0.00 81 1014.9
20260506201007 7 80 12.9 12.9 0.00 0.00 0.00 81 1014.9
20260506195007 7 80 16.1 16.1 0.00 0.00 0.00 81 1014.9
20260506194504 7 80 16.1 16.1 0.00 0.00 0.00 81 1014.9
20260506193504 7 80 16.1 16.1 0.00 0.00 0.00 81 1014.9
20260506193008 7 80 16.1 16.1 0.00 0.00 0.00 81 1014.9
20260506192007 7 80 16.1 16.1 0.00 0.00 0.00 81 1014.9
20260506191504 7 80 16.1 16.1 0.00 0.00 0.00 81 1014.9
20260506191008 7 80 16.1 16.1 0.00 0.00 0.00 81 1014.9
20260506184504 8 80 16.1 16.1 0.00 0.00 0.00 75 1014.9
20260506182504 8 80 16.1 16.1 0.00 0.00 0.00 75 1014.9
20260506181504 8 80 16.1 16.1 0.00 0.00 0.00 75 1014.9
20260506180504 8 80 16.1 19.3 0.00 0.00 0.00 75 1014.9
20260506180005 8 80 16.1 19.3 0.00 0.00 0.00 75 1014.9
20260506174007 10 70 19.3 19.3 0.00 0.00 0.00 71 1014.9
20260506172007 10 70 19.3 19.3 0.00 0.00 0.00 71 1014.9
20260506171007 10 70 19.3 19.3 0.00 0.00 0.00 71 1014.9
20260506170004 10 70 19.3 19.3 0.00 0.00 0.00 71 1014.9
20260506165504 10 60 19.3 19.3 0.00 0.00 0.00 66 1013.9
20260506165007 10 60 19.3 19.3 0.00 0.00 0.00 66 1013.9
20260506164006 10 60 19.3 19.3 0.00 0.00 0.00 66 1013.9
20260506163007 10 60 19.3 19.3 0.00 0.00 0.00 66 1013.9
20260506162504 10 60 19.3 19.3 0.00 0.00 0.00 66 1013.9
20260506162007 10 60 19.3 19.3 0.00 0.00 0.00 66 1013.9
20260506161007 10 60 19.3 19.3 0.00 0.00 0.00 66 1013.9
20260506160004 10 60 19.3 19.3 0.00 0.00 0.00 66 1013.9
20260506155505 11 50 19.3 19.3 0.00 0.00 0.00 57 1013.9
20260506154008 11 50 19.3 19.3 0.00 0.00 0.00 57 1013.9
20260506153503 11 50 19.3 19.3 0.00 0.00 0.00 57 1013.9
20260506152504 11 50 19.3 19.3 0.00 0.00 0.00 57 1013.9
20260506152007 11 50 19.3 19.3 0.00 0.00 0.00 57 1013.9
20260506151504 11 50 19.3 19.3 0.00 0.00 0.00 57 1013.9
20260506151007 11 50 19.3 19.3 0.00 0.00 0.00 57 1013.9
20260506150504 11 50 19.3 19.3 0.00 0.00 0.00 57 1013.9
20260506150004 11 50 19.3 19.3 0.00 0.00 0.00 57 1013.9
20260506145007 11 40 19.3 19.3 0.00 0.00 0.00 57 1014.9
20260506142007 11 40 19.3 19.3 0.00 0.00 0.00 57 1014.9
20260506141504 11 40 19.3 19.3 0.00 0.00 0.00 57 1014.9
20260506135007 12 40 14.5 14.5 0.00 0.00 0.00 50 1013.9
20260506134504 12 40 14.5 14.5 0.00 0.00 0.00 50 1013.9
20260506133007 12 40 14.5 14.5 0.00 0.00 0.00 50 1013.9
20260506130005 12 40 14.5 16.1 0.00 0.00 0.00 50 1013.9
20260506125007 12 30 16.1 16.1 0.00 0.00 0.00 50 1014.9
20260506124007 12 30 16.1 16.1 0.00 0.00 0.00 50 1014.9
20260506122007 12 30 16.1 16.1 0.00 0.00 0.00 50 1014.9
20260506121007 12 30 16.1 16.1 0.00 0.00 0.00 50 1014.9
20260506120504 12 30 16.1 16.1 0.00 0.00 0.00 50 1014.9
20260506120004 12 30 16.1 16.1 0.00 0.00 0.00 50 1014.9
20260506114008 11 30 16.1 16.1 0.00 0.00 0.00 53 1014.9
20260506113504 11 30 16.1 16.1 0.00 0.00 0.00 53 1014.9
20260506111504 11 30 16.1 16.1 0.00 0.00 0.00 53 1014.9
20260506105007 8 0 14.5 14.5 0.00 0.00 0.00 66 1014.9
20260506101007 8 0 14.5 14.5 0.00 0.00 0.00 66 1014.9
20260506100504 8 0 14.5 14.5 0.00 0.00 0.00 66 1014.9
20260506100004 8 0 14.5 14.5 0.00 0.00 0.00 66 1014.9
20260506094503 7 10 12.9 12.9 0.00 0.00 0.00 70 1014.9
20260506093007 7 10 12.9 12.9 0.00 0.00 0.00 70 1014.9
20260506092505 7 10 12.9 12.9 0.00 0.00 0.00 70 1014.9
20260506092007 7 10 12.9 12.9 0.00 0.00 0.00 70 1014.9
20260506090504 7 10 12.9 14.5 0.00 0.00 0.00 70 1014.9
20260506083007 8 30 14.5 14.5 0.00 0.00 0.00 70 1014.9
20260506082504 8 30 14.5 14.5 0.00 0.00 0.00 70 1014.9
20260506081504 8 30 14.5 14.5 0.00 0.00 0.00 70 1014.9
20260506081007 8 30 14.5 14.5 0.00 0.00 0.00 70 1014.9
20260506080504 8 30 14.5 14.5 0.00 0.00 0.00 70 1014.9
20260506073504 7 10 12.9 12.9 0.00 0.00 0.00 75 1014.9
20260506072504 7 10 12.9 12.9 0.00 0.00 0.00 75 1014.9
20260506072007 7 10 12.9 12.9 0.00 0.00 0.00 75 1014.9